FW9742 Weather Reports


time (UTC)temp
F
wind
direction
speed
knots
gust
knots
rain 1hr
in
rain 24hr
in
rain mn
in
humidity
%
barometer
mb
20260505022813 66 151 1.7 2.6 0.00 0.00 0.00 74 1012.6
20260505022310 66 191 2.6 4.3 0.00 0.00 0.00 74 1012.9
20260505021807 66 212 2.6 4.3 0.00 0.00 0.00 74 1013.0
20260505021303 66 181 1.7 2.6 0.00 0.00 0.00 74 1012.9
20260505020759 66 171 1.7 2.6 0.00 0.00 0.00 74 1012.8
20260505020254 67 183 2.6 2.6 0.00 0.00 0.00 74 1012.9
20260505015752 67 176 2.6 2.6 0.00 0.00 0.00 73 1012.7
20260505015249 67 173 0.9 1.7 0.00 0.00 0.00 73 1012.8
20260505014746 67 183 1.7 2.6 0.00 0.00 0.00 72 1012.5
20260505014243 67 173 1.7 2.6 0.00 0.00 0.00 72 1012.9
20260505013739 68 158 1.7 1.7 0.00 0.00 0.00 71 1012.6
20260505013237 68 183 0.9 4.3 0.00 0.00 0.00 71 1012.5
20260505012735 68 154 1.7 2.6 0.00 0.00 0.00 71 1012.3
20260505012232 69 162 2.6 2.6 0.00 0.00 0.00 69 1012.4
20260505011727 69 193 2.6 2.6 0.00 0.00 0.00 67 1012.4
20260505011225 69 180 2.6 2.6 0.00 0.00 0.00 67 1012.4
20260505010720 69 238 1.7 2.6 0.00 0.00 0.00 67 1012.5
20260505010217 69 220 2.6 2.6 0.00 0.00 0.00 67 1012.2
20260505005713 69 183 0.9 2.6 0.00 0.00 0.00 66 1012.4
20260505005211 70 170 2.6 2.6 0.00 0.00 0.00 65 1012.3
20260505004708 70 211 2.6 2.6 0.00 0.00 0.00 64 1012.5
20260505004204 70 174 2.6 4.3 0.00 0.00 0.00 63 1012.4
20260505003702 70 173 1.7 2.6 0.00 0.00 0.00 64 1013.0
20260505003159 71 201 0.9 1.7 0.00 0.00 0.00 63 1012.5
20260505002655 71 196 1.7 2.6 0.00 0.00 0.00 62 1012.5
20260505002153 71 197 2.6 2.6 0.00 0.00 0.00 61 1012.7
20260505001650 72 168 1.7 2.6 0.00 0.00 0.00 60 1012.5
20260505001148 72 178 1.7 1.7 0.00 0.00 0.00 59 1012.7
20260505000644 73 182 1.7 2.6 0.00 0.00 0.00 57 1012.8
20260505000142 73 219 2.6 2.6 0.00 0.00 0.00 56 1013.0
20260504235638 73 247 1.7 2.6 0.00 0.00 0.00 55 1012.9
20260504235135 74 171 3.5 4.3 0.00 0.00 0.00 54 1012.8
20260504234632 74 212 1.7 1.7 0.00 0.00 0.00 54 1012.7
20260504234130 74 188 1.7 1.7 0.00 0.00 0.00 53 1012.9
20260504233625 74 174 1.7 1.7 0.00 0.00 0.00 52 1012.6
20260504233121 74 145 1.7 2.6 0.00 0.00 0.00 51 1012.9
20260504232619 74 159 0.9 2.6 0.00 0.00 0.00 50 1012.9
20260504232116 75 222 2.6 2.6 0.00 0.00 0.00 48 1012.9
20260504231613 75 181 3.5 4.3 0.00 0.00 0.00 48 1012.9
20260504231109 75 180 2.6 4.3 0.00 0.00 0.00 48 1013.0
20260504230605 75 183 1.7 4.3 0.00 0.00 0.00 48 1012.9
20260504230104 76 216 2.6 2.6 0.00 0.00 0.00 48 1013.0
20260504225601 76 223 2.6 2.6 0.00 0.00 0.00 46 1013.1
20260504225058 76 157 1.7 2.6 0.00 0.00 0.00 47 1013.2
20260504224554 76 199 3.5 5.2 0.00 0.00 0.00 46 1013.2
20260504224052 76 349 0.9 4.3 0.00 0.00 0.00 46 1013.3
20260504223549 76 164 2.6 2.6 0.00 0.00 0.00 46 1013.0
20260504223044 77 246 2.6 4.3 0.00 0.00 0.00 44 1013.4
20260504222541 77 263 0.9 4.3 0.00 0.00 0.00 44 1013.2
20260504222039 77 270 1.7 2.6 0.00 0.00 0.00 45 1013.2
20260504221536 77 281 0.9 1.7 0.00 0.00 0.00 43 1013.5
20260504221032 77 254 0.9 1.7 0.00 0.00 0.00 46 1013.2
20260504220529 77 236 2.6 2.6 0.00 0.00 0.00 44 1013.4
20260504220026 77 169 2.6 2.6 0.00 0.00 0.00 43 1013.8
20260504215522 77 269 1.7 2.6 0.00 0.00 0.00 43 1013.6
20260504215020 76 191 1.7 2.6 0.00 0.00 0.00 44 1013.3
20260504214516 77 208 1.7 1.7 0.00 0.00 0.00 43 1013.6
20260504214012 77 188 1.7 4.3 0.00 0.00 0.00 43 1013.6
20260504213509 78 221 0.9 1.7 0.00 0.00 0.00 43 1013.5
20260504213006 78 308 0.9 1.7 0.00 0.00 0.00 45 1013.5
20260504212502 78 273 1.7 5.2 0.00 0.00 0.00 46 1013.6
20260504212000 79 257 2.6 2.6 0.00 0.00 0.00 45 1013.7
20260504211456 79 252 1.7 2.6 0.00 0.00 0.00 45 1013.6
20260504210953 78 183 0.9 1.7 0.00 0.00 0.00 45 1013.7
20260504210450 79 305 0.9 2.6 0.00 0.00 0.00 44 1014.0
20260504205947 79 222 1.7 2.6 0.00 0.00 0.00 46 1013.9
20260504205444 80 291 0.9 1.7 0.00 0.00 0.00 46 1013.8
20260504204943 79 258 1.7 4.3 0.00 0.00 0.00 46 1013.8
20260504204441 79 181 1.7 1.7 0.00 0.00 0.00 43 1013.8
20260504203940 79 264 0.9 4.3 0.00 0.00 0.00 44 1014.0
20260504203437 79 271 0.9 4.3 0.00 0.00 0.00 47 1014.1
20260504202933 79 198 0.9 2.6 0.00 0.00 0.00 45 1014.1
20260504202429 78 245 2.6 2.6 0.00 0.00 0.00 47 1014.2
20260504201926 79 143 1.7 2.6 0.00 0.00 0.00 45 1014.3
20260504201424 79 297 1.7 4.3 0.00 0.00 0.00 44 1014.2
20260504200921 79 275 2.6 2.6 0.00 0.00 0.00 44 1014.3
20260504200418 78 263 2.6 6.1 0.00 0.00 0.00 46 1014.4
20260504195915 78 289 2.6 4.3 0.00 0.00 0.00 47 1014.7
20260504195410 79 229 1.7 5.2 0.00 0.00 0.00 44 1014.9
20260504194907 79 285 0.9 2.6 0.00 0.00 0.00 47 1015.0
20260504194403 79 219 0.9 2.6 0.00 0.00 0.00 47 1014.9
20260504193859 78 205 1.7 2.6 0.00 0.00 0.00 46 1015.1
20260504193356 79 269 2.6 2.6 0.00 0.00 0.00 44 1015.3
20260504192855 79 272 3.5 5.2 0.00 0.00 0.00 45 1015.2
20260504192352 78 270 1.7 2.6 0.00 0.00 0.00 44 1015.4
20260504191850 79 177 2.6 4.3 0.00 0.00 0.00 45 1015.5
20260504191348 79 262 2.6 5.2 0.00 0.00 0.00 45 1015.4
20260504190843 79 324 0.9 2.6 0.00 0.00 0.00 46 1015.4
20260504190339 79 219 0.9 1.7 0.00 0.00 0.00 47 1015.5
20260504185836 78 302 0.9 1.7 0.00 0.00 0.00 48 1015.4
20260504185333 78 307 1.7 2.6 0.00 0.00 0.00 46 1015.5
20260504184829 78 300 1.7 2.6 0.00 0.00 0.00 47 1015.3
20260504184325 78 134 2.6 5.2 0.00 0.00 0.00 48 1015.8
20260504183821 78 318 0.9 2.6 0.00 0.00 0.00 45 1015.7
20260504183319 78 292 1.7 2.6 0.00 0.00 0.00 48 1015.8
20260504182816 79 313 0.9 4.3 0.00 0.00 0.00 47 1015.8
20260504182314 78 294 1.7 2.6 0.00 0.00 0.00 49 1015.9
20260504181810 77 10 0.0 1.7 0.00 0.00 0.00 50 1016.1
20260504181308 78 304 1.7 1.7 0.00 0.00 0.00 45 1016.2
20260504180807 77 272 3.5 6.1 0.00 0.00 0.00 47 1016.2
20260504180305 77 307 2.6 2.6 0.00 0.00 0.00 49 1016.3
20260504175803 77 304 1.7 2.6 0.00 0.00 0.00 47 1016.4
20260504175259 78 224 2.6 2.6 0.00 0.00 0.00 46 1016.4
20260504174757 78 293 1.7 2.6 0.00 0.00 0.00 47 1016.4
20260504174255 77 288 1.7 2.6 0.00 0.00 0.00 50 1016.4
20260504173751 77 141 2.6 2.6 0.00 0.00 0.00 46 1016.3
20260504173248 76 216 1.7 4.3 0.00 0.00 0.00 49 1016.4
20260504172745 76 106 2.6 5.2 0.00 0.00 0.00 50 1016.6
20260504172241 77 205 1.7 1.7 0.00 0.00 0.00 46 1016.7
20260504171737 78 308 1.7 2.6 0.00 0.00 0.00 45 1016.4
20260504171235 77 20 0.9 0.9 0.00 0.00 0.00 47 1016.4
20260504170732 77 305 1.7 1.7 0.00 0.00 0.00 48 1016.5
20260504170229 77 278 1.7 5.2 0.00 0.00 0.00 45 1016.5
20260504160147 76 164 2.6 4.3 0.00 0.00 0.00 47 1016.9
20260504151115 74 74 0.9 2.6 0.00 0.00 0.00 47 1017.1
20260504150612 75 289 1.7 2.6 0.00 0.00 0.00 55 1017.0
20260504150109 74 295 0.9 2.6 0.00 0.00 0.00 59 1017.0
20260504141038 70 317 0.9 0.9 0.00 0.00 0.00 67 1017.4
20260504140534 69 307 0.9 0.9 0.00 0.00 0.00 68 1017.2
20260504130459 65 41 0.9 0.9 0.00 0.00 0.00 80 1017.2
20260504110340 53 11 0.0 0.0 0.00 0.00 0.00 91 1016.3
20260504100258 53 12 0.0 0.0 0.00 0.00 0.00 90 1016.6
20260504081651 54 5 0.0 0.0 0.00 0.00 0.00 89 1016.7
20260504081147 54 5 0.0 0.0 0.00 0.00 0.00 88 1016.7
20260504080644 55 5 0.0 0.0 0.00 0.00 0.00 88 1016.8
20260504080140 55 5 0.0 0.0 0.00 0.00 0.00 88 1016.6
20260504070108 58 320 0.9 0.9 0.00 0.00 0.00 84 1017.1
20260504050456 61 320 0.0 0.0 0.00 0.00 0.00 77 1018.2
20260504045954 61 320 0.0 0.0 0.00 0.00 0.00 76 1018.1
20260504045449 62 320 0.0 0.9 0.00 0.00 0.00 75 1018.0
20260504044946 62 320 0.0 0.9 0.00 0.00 0.00 74 1018.2
20260504044443 62 320 0.9 0.9 0.00 0.00 0.00 73 1018.3
20260504043941 62 320 0.9 0.9 0.00 0.00 0.00 73 1018.4
20260504043437 62 320 0.0 0.9 0.00 0.00 0.00 73 1018.5
20260504042935 62 321 0.0 0.9 0.00 0.00 0.00 73 1018.0
20260504042431 63 320 0.0 0.9 0.00 0.00 0.00 72 1018.2
20260504041928 63 320 0.9 0.9 0.00 0.00 0.00 72 1018.3
20260504041424 63 321 0.0 0.9 0.00 0.00 0.00 71 1018.3
20260504040920 64 321 0.9 0.9 0.00 0.00 0.00 70 1018.3
20260504040418 64 321 0.0 0.9 0.00 0.00 0.00 70 1018.3
20260504035914 64 322 0.9 0.9 0.00 0.00 0.00 69 1018.5
20260504035412 64 296 0.9 1.7 0.00 0.00 0.00 68 1018.4
20260504034908 64 307 0.9 1.7 0.00 0.00 0.00 69 1018.6
20260504034406 64 313 0.9 1.7 0.00 0.00 0.00 70 1018.7
20260504033903 64 312 0.9 1.7 0.00 0.00 0.00 71 1018.5
20260504033400 64 312 0.9 1.7 0.00 0.00 0.00 70 1018.4
20260504032857 64 316 1.7 1.7 0.00 0.00 0.00 69 1018.3
20260504032354 64 258 0.9 1.7 0.00 0.00 0.00 69 1018.6
20260504031850 65 309 0.9 0.9 0.00 0.00 0.00 68 1018.6
20260504031348 65 302 0.9 0.9 0.00 0.00 0.00 67 1018.5
20260504030844 65 308 0.9 0.9 0.00 0.00 0.00 68 1018.4
20260504030342 65 299 0.9 0.9 0.00 0.00 0.00 68 1018.3
20260504025837 65 313 0.9 1.7 0.00 0.00 0.00 68 1018.4
20260504025335 65 303 0.9 1.7 0.00 0.00 0.00 69 1018.4
20260504024831 65 319 0.9 1.7 0.00 0.00 0.00 70 1018.4
20260504024328 65 308 0.9 1.7 0.00 0.00 0.00 69 1018.3
20260504023824 65 184 0.0 0.9 0.00 0.00 0.00 67 1018.4
20260504023321 66 306 0.9 0.9 0.00 0.00 0.00 65 1018.3